OBJECT_NAME,OBJECT_ID,EPOCH,MEAN_MOTION,ECCENTRICITY,INCLINATION,RA_OF_ASC_NODE,ARG_OF_PERICENTER,MEAN_ANOMALY,EPHEMERIS_TYPE,CLASSIFICATION_TYPE,NORAD_CAT_ID,ELEMENT_SET_NO,REV_AT_EPOCH,BSTAR,MEAN_MOTION_DOT,MEAN_MOTION_DDOT NSS-11,2000-059A,2026-09-12T06:02:38.660640,1.00272341,.00028666,2.3455,80.2581,94.2757,83.3883,0,U,26554,999,4216,0,.11E-6,0 AMC-6,2000-067A,2026-09-12T06:27:38.778912,1.00272241,.00042037,0.3700,83.6988,97.4928,131.9536,0,U,26580,999,9476,0,.74E-6,0 AMC-15,2004-041A,2026-09-12T06:19:38.851968,1.00271600,.00020664,0.0463,314.8365,224.1754,162.1068,0,U,28446,999,8017,0,-.103E-5,0 NSS-10,2005-003A,2026-09-12T06:52:59.664288,1.00271984,.00029148,6.6637,69.3614,102.5225,245.2216,0,U,28526,999,5402,0,-.263E-5,0 ASTRA 1KR,2006-012A,2026-09-12T05:26:30.457824,1.00272799,.00034402,0.6933,82.7032,90.5445,278.6068,0,U,29055,999,4657,0,.105E-5,0 ASTRA 1L,2007-016A,2026-09-12T06:56:44.306016,1.00271855,.00048518,1.5406,80.7025,90.3576,259.9393,0,U,31306,999,4585,0,-.198E-5,0 ASTRA 4A,2007-057A,2026-09-12T07:05:06.004032,1.00272623,.00023476,0.0440,313.4455,221.8997,287.0391,0,U,32299,999,5252,0,.18E-6,0 ASTRA 1M,2008-057A,2026-09-12T05:26:37.946112,1.00271138,.00036586,0.5153,82.6581,88.0090,281.6096,0,U,33436,999,4661,0,.106E-5,0 NSS-9,2009-008A,2026-09-12T02:48:00.656064,1.00273645,.00021915,1.4803,81.6412,84.9224,49.6512,0,U,33749,999,6439,0,.58E-6,0 SES-7 (PROTOSTAR 2),2009-027A,2026-09-12T00:09:00.653184,1.00271038,.00014828,0.0376,78.6265,147.2559,235.6482,0,U,34941,999,6350,0,-.36E-5,0 NSS-12,2009-058A,2026-09-12T03:54:39.266208,1.00270911,.00032959,0.0202,139.8770,352.4315,334.5244,0,U,36032,999,6179,0,0,0 SES-1,2010-016A,2026-09-12T04:52:18.736032,1.00272125,.00024952,0.0450,303.3656,238.1957,141.7460,0,U,36516,999,5990,0,-.13E-5,0 ASTRA 3B,2010-021A,2026-09-12T05:27:45.338112,1.00271315,.00037458,1.6871,82.3555,64.3517,309.9679,0,U,36581,999,5974,0,.123E-5,0 SES-3,2011-035A,2026-09-12T04:51:41.296320,1.00274444,.00024431,1.5455,81.9832,105.2775,133.8819,0,U,37748,999,5546,0,-.116E-5,0 ASTRA 1N,2011-041A,2026-09-12T05:26:30.457824,1.00273043,.00048991,0.0712,12.9078,136.3978,302.7419,0,U,37775,999,4540,0,.105E-5,0 SES-2,2011-049A,2026-09-12T06:38:53.516256,1.00272460,.00028146,0.2762,87.6783,82.6862,193.6410,0,U,37809,999,5483,0,-.21E-5,0 QUETZSAT 1,2011-054A,2026-09-12T06:41:45.740832,1.00271969,.00025493,0.0445,297.0367,247.0091,190.6857,0,U,37826,999,5074,0,-.256E-5,0 SES-4,2012-007A,2026-09-12T06:57:29.234016,1.00272650,.00025547,0.0189,53.5788,122.3641,257.7421,0,U,38087,999,5309,0,-.182E-5,0 SES-5,2012-036A,2026-09-12T07:05:06.004032,1.00270079,.00019729,0.0150,43.1070,124.0606,295.3840,0,U,38652,999,4533,0,0,0 ASTRA 2F,2012-051A,2026-09-12T05:29:07.706688,1.00272495,.00041956,0.0691,257.8826,306.6952,257.1166,0,U,38778,999,4200,0,.135E-5,0 SES-6,2013-026A,2026-09-12T06:52:07.248000,1.00271792,.00023902,0.0564,294.7532,241.5795,237.5089,0,U,39172,999,4859,0,-.276E-5,0 O3B FM5,2013-031A,2026-09-12T04:36:49.412448,5.00115703,.00024956,0.0828,318.5242,198.2460,203.2410,0,U,39188,999,24138,0,-.28E-6,0 O3B FM4,2013-031B,2026-09-10T17:06:04.307040,5.00115971,.00044943,0.0404,352.7610,149.7641,217.5054,0,U,39189,999,24131,0,-.28E-6,0 O3B FM2,2013-031C,2026-09-11T23:27:20.173248,5.00116110,.00026124,0.0348,358.6108,167.5788,193.8173,0,U,39190,999,24144,0,-.28E-6,0 O3B PFM,2013-031D,2026-09-12T04:35:31.018272,5.00116067,.00048789,0.0618,338.2371,169.3616,212.4311,0,U,39191,999,24101,0,-.28E-6,0 ASTRA 2E,2013-056A,2026-09-12T05:29:07.706688,1.00270892,.00021669,0.0925,304.7836,223.6468,293.5786,0,U,39285,999,4729,0,.135E-5,0 SES-8,2013-071A,2026-09-12T02:22:55.562016,1.00271990,.0002016,0.0509,270.9830,240.1357,330.7289,0,U,39460,999,4530,0,-.285E-5,0 ASTRA 5B,2014-011B,2026-09-12T05:27:45.338112,1.00269300,.00028069,0.1039,293.5902,256.5197,266.5756,0,U,39617,999,4554,0,.122E-5,0 O3B FM3,2014-038A,2026-09-12T06:11:35.860416,5.00115800,.00035018,0.0486,353.4907,221.2929,145.1935,0,U,40079,999,21739,0,-.28E-6,0 O3B FM7,2014-038B,2026-09-12T00:06:12.075552,5.00115670,.00029172,0.0422,348.3442,143.0257,228.6549,0,U,40080,999,22221,0,-.28E-6,0 O3B FM6,2014-038C,2026-09-11T19:57:10.517472,5.00115806,.00025752,0.0458,352.1714,176.6296,191.2045,0,U,40081,999,22216,0,-.28E-6,0 O3B FM8,2014-038D,2026-09-11T11:38:05.389440,5.00116154,.0002761,0.0450,351.3625,179.5150,189.1271,0,U,40082,999,22225,0,-.28E-6,0 O3B FM10,2014-083A,2026-09-12T02:40:56.020800,5.00115419,.0002299,0.0488,347.3308,208.3403,164.3217,0,U,40348,999,21424,0,-.28E-6,0 O3B FM11,2014-083B,2026-09-12T02:59:11.084640,5.00115542,.00021924,0.0541,348.0240,169.1251,202.8605,0,U,40349,999,21426,0,-.28E-6,0 O3B FM12,2014-083C,2026-09-10T22:50:55.136256,5.00115999,.00024265,0.0535,348.6907,180.2202,191.0938,0,U,40350,999,21421,0,-.28E-6,0 O3B FM9,2014-083D,2026-09-12T04:16:35.225472,5.00116103,.0002603,0.0542,346.8280,182.2768,190.9008,0,U,40351,999,21442,0,-.28E-6,0 ASTRA 2G,2014-089A,2026-09-12T05:29:07.706688,1.00269841,.00030694,0.0241,3.4847,89.5839,8.6126,0,U,40364,999,4284,0,0,0 SES-9,2016-013A,2026-09-11T23:44:38.670144,1.00267753,.00018479,0.0136,165.4539,318.3296,331.6643,0,U,41380,999,3830,0,0,0 SES-10,2017-017A,2026-09-12T03:19:20.150688,1.00272525,.00027492,0.0178,71.2882,102.8037,160.0015,0,U,42432,999,3462,0,-.288E-5,0 SES-15,2017-026A,2026-09-12T06:26:54.664800,1.00269096,.00003657,0.0490,328.9875,178.6946,171.1639,0,U,42709,999,830,0,.45E-6,0 SES-11 (ECHOSTAR 105),2017-063A,2026-09-12T06:19:38.851968,1.00271844,.00026925,0.0486,308.3901,204.7083,188.1344,0,U,42967,999,3259,0,-.104E-5,0 SES-14,2018-012B,2026-09-11T23:59:39.299424,1.00271871,.00010921,0.0232,64.5852,103.1240,135.7197,0,U,43175,999,789,0,-.294E-5,0 O3B FM15,2018-024A,2026-09-12T01:05:00.212640,5.00115855,.00025588,0.0560,356.2474,176.0680,187.6883,0,U,43231,999,15537,0,-.28E-6,0 O3B FM16,2018-024B,2026-09-12T02:20:18.933504,5.00116034,.00025462,0.0585,359.5448,171.5161,188.9435,0,U,43232,999,15529,0,-.28E-6,0 O3B FM14,2018-024C,2026-09-12T03:19:07.653792,5.00115822,.00028226,0.0582,0.8589,168.9563,190.1905,0,U,43233,999,15529,0,-.28E-6,0 O3B FM13,2018-024D,2026-09-12T00:06:11.411136,5.00115656,.00009948,0.0570,342.1916,118.9964,258.8230,0,U,43234,999,15540,0,-.28E-6,0 SES-12,2018-049A,2026-09-12T02:22:55.562016,1.00270841,.00016896,0.0183,66.9969,170.3429,244.5036,0,U,43488,999,3029,0,-.284E-5,0 O3B FM20,2019-020A,2026-09-11T23:08:50.496576,5.00115720,.00022327,0.0542,353.2834,175.7208,191.0005,0,U,44112,999,13591,0,-.28E-6,0 O3B FM19,2019-020B,2026-09-12T04:35:30.626016,5.00116022,.00029975,0.0774,341.0536,163.1211,215.8453,0,U,44113,999,13578,0,-.28E-6,0 O3B FM17,2019-020C,2026-09-12T01:43:11.430912,5.00115699,.00025605,0.0479,14.2730,158.8558,186.8746,0,U,44114,999,13587,0,-.28E-6,0 O3B FM18,2019-020D,2026-09-11T14:50:16.921824,5.00115419,.00027379,0.0545,352.8386,178.3371,188.8287,0,U,44115,999,13596,0,-.28E-6,0 SES-17,2021-095A,2026-09-12T06:44:37.966272,1.00270681,.00010064,0.0320,52.8588,113.8699,218.6220,0,U,49332,999,1872,0,-.287E-5,0 SES-22,2022-071A,2026-09-12T06:27:38.778912,1.00272241,.0001036,0.0188,173.0500,347.7173,148.4170,0,U,52933,999,839,0,0,0 SES-20,2022-123A,2026-09-12T04:51:41.296320,1.00271055,.00017034,0.0239,93.4027,12.6293,215.0046,0,U,53960,999,1440,0,-.116E-5,0 SES-21,2022-123B,2026-09-12T06:26:24.713376,1.00270961,.00010321,0.0326,63.4859,107.7078,145.6917,0,U,53961,999,808,0,.55E-6,0 O3B MPOWER F1,2022-174A,2026-09-12T06:30:54.282240,5.00114440,.00069143,0.0432,340.9705,195.7853,139.3473,0,U,54755,999,6971,0,-.28E-6,0 O3B MPOWER F2,2022-174B,2026-09-12T01:30:07.540128,5.00118290,.00055139,0.0401,344.7420,180.7390,194.5347,0,U,54756,999,6979,0,-.28E-6,0 SES-18,2023-038A,2026-09-12T04:51:41.296320,1.00271790,.00020585,0.0498,277.7391,304.7151,98.5744,0,U,55970,999,1297,0,-.116E-5,0 SES-19,2023-038B,2026-09-12T06:27:38.778912,1.00273273,.00017541,0.0566,280.7476,251.7364,140.8202,0,U,55971,999,1296,0,.73E-6,0 O3B MPOWER F4,2023-059A,2026-09-12T03:02:36.282048,5.00115023,.0007701,0.0603,342.9417,185.6439,191.4317,0,U,56367,999,6294,0,-.28E-6,0 O3B MPOWER F3,2023-059B,2026-09-11T13:26:50.937792,5.00114921,.00064401,0.0607,342.0462,181.0984,196.8764,0,U,56368,999,5905,0,-.28E-6,0 O3B MPOWER F5,2023-175A,2026-09-12T06:15:40.006944,5.00115605,.00061934,0.0601,3.8698,184.3133,171.8068,0,U,58346,999,5378,0,-.28E-6,0 O3B MPOWER F6,2023-175B,2026-09-05T23:09:25.745184,5.00115509,.00044753,0.0576,356.5617,173.7664,189.6806,0,U,58347,999,5239,0,-.23E-6,0 ASTRA 1P (SES-24),2024-115A,2026-09-12T03:43:55.294176,1.00275968,.00021128,0.0625,336.9134,247.7496,201.6893,0,U,60086,999,806,0,.105E-5,0 O3B MPOWER F7,2024-244A,2026-09-12T00:40:21.165600,5.00115428,.00057128,0.0595,334.9405,190.8424,194.2329,0,U,62362,999,3087,0,-.28E-6,0 O3B MPOWER F8,2024-244B,2026-09-12T04:40:41.659104,5.00114702,.00052457,0.0312,36.3958,124.3525,199.2715,0,U,62363,999,2521,0,-.28E-6,0 O3B MPOWER F9,2025-153A,2026-09-12T03:04:38.373888,5.00115385,.00073008,0.0665,357.3633,186.1927,176.4387,0,U,64866,999,2391,0,-.28E-6,0 O3B MPOWER F10,2025-153B,2026-09-12T02:15:53.482464,5.00114844,.00044999,0.0622,355.5922,270.7541,93.6022,0,U,64867,999,2638,0,-.28E-6,0